Weather History for Nassau, Bahamas

Change the Weather History Date:

Sunday, May 26, 2013

  Actual Average Record
Temperature  
Mean Temperature 81 °F -  
Max Temperature 86 °F 87 °F 91 °F (2000)
Min Temperature 76 °F 73 °F 66 °F (2004)
Cooling Degree Days 16    
Growing Degree Days 31 (Base 50)    
Moisture  
Dew Point 71 °F    
Average Humidity 75    
Maximum Humidity 83    
Minimum Humidity 65    
Precipitation  
Precipitation 0.00 in 0.29 in - ()
Sea Level Pressure  
Sea Level Pressure 30.12 in    
Wind  
Wind Speed 6 mph ()    
Max Wind Speed 15 mph    
Max Gust Speed -    
Visibility 6.9 miles    
Events Rain    
Averages and records for this station are not official NWS values.
T = Trace of Precipitation, MM = Missing Value Source: Averaged Metar Reports

Daily Weather History Graph

Daily Weather History Graph

Search for Another Location

Airport:

Trip Planner

Search our weather history database for the weather conditions in past years. The results will help you decide how hot, cold, wet, or windy it might be!

Date:

Astronomy

May. 26, 2013 Rise Set
Actual Time 6:21 AM EDT 7:52 PM EDT
Civil Twilight 5:55 AM EDT 8:18 PM EDT
Nautical Twilight 5:25 AM EDT 8:48 PM EDT
Astronomical Twilight 4:54 AM EDT 9:19 PM EDT
Moon 9:41 PM EDT (5/26) 7:46 AM EDT (5/26)
Length of Visible Light 14h 22m
Length of Day
13h 31m
Waning Gibbous, 97% of the Moon is Illuminated
May 26
Waning Gibbous
May 31
Last Quarter
Jun 8
New
Jun 16
First Quarter
Jun 23
Full

Hourly Weather History & Observations

Time (EDT) Temp. Heat Index Dew Point Humidity Pressure Visibility Wind Dir Wind Speed Gust Speed Precip Events Conditions
12:00 AM 77.0 °F - 68.0 °F 74% 30.14 in 6.2 mi ENE 3.5 mph - N/A   Scattered Clouds
1:00 AM 77.0 °F - 68.0 °F 74% 30.14 in 6.2 mi East 2.3 mph - N/A   Scattered Clouds
2:00 AM 77.0 °F - 68.0 °F 74% 30.11 in 6.2 mi ENE 4.6 mph - N/A   Scattered Clouds
3:00 AM 77.0 °F - 68.0 °F 74% 30.10 in 6.2 mi ENE 4.6 mph - N/A   Scattered Clouds
4:00 AM 77.0 °F - 68.0 °F 74% 30.10 in 6.2 mi NE 3.5 mph - N/A   Scattered Clouds
5:00 AM 77 °F - 72 °F 79% 30.09 in 9 mi NE 3.5 mph - -   Partly Cloudy
5:00 AM 77.0 °F - 71.6 °F 83% 30.09 in 6.2 mi NE 3.5 mph - N/A   Scattered Clouds
6:00 AM 77.0 °F - 69.8 °F 78% 30.11 in 6.2 mi NE 2.3 mph - N/A   Scattered Clouds
7:00 AM 77.0 °F - 69.8 °F 78% 30.11 in 6.2 mi East 3.5 mph - N/A   Scattered Clouds
8:00 AM 79 °F - 71 °F 72% 30.11 in 9 mi NE 6.9 mph - -   Partly Cloudy
8:00 AM 78.8 °F - 71.6 °F 78% 30.11 in 6.2 mi NE 6.9 mph - N/A   Scattered Clouds
9:00 AM 80.6 °F 83.9 °F 69.8 °F 70% 30.12 in 6.2 mi NE 9.2 mph - N/A   Scattered Clouds
10:00 AM 80.6 °F 84.6 °F 71.6 °F 74% 30.14 in 6.2 mi ENE 8.1 mph - N/A   Scattered Clouds
11:00 AM 83 °F - 73 °F 65% 30.16 in 9 mi ENE 9.2 mph - -   Partly Cloudy
11:00 AM 84.2 °F 90.9 °F 73.4 °F 70% 30.15 in 6.2 mi ENE 9.2 mph - N/A   Scattered Clouds
12:00 PM 82.4 °F 87.2 °F 71.6 °F 70% 30.16 in 6.2 mi NNE 11.5 mph - N/A   Mostly Cloudy
1:00 PM 80.6 °F 84.6 °F 71.6 °F 74% 30.14 in 6.2 mi ENE 11.5 mph - N/A   Mostly Cloudy
2:00 PM 84 °F - 75 °F 67% 30.13 in 9 mi East 13.8 mph - - Rain Light Rain Showers
2:00 PM 84.2 °F 92.3 °F 75.2 °F 74% 30.13 in 6.2 mi East 13.8 mph - N/A Rain Light Rain Showers
3:00 PM 82.4 °F 87.2 °F 71.6 °F 70% 30.12 in 6.2 mi NE 12.7 mph - N/A   Mostly Cloudy
4:00 PM 82.4 °F 87.2 °F 71.6 °F 70% 30.11 in 6.2 mi ENE 12.7 mph - N/A   Mostly Cloudy
5:00 PM 82 °F - 74 °F 72% 30.10 in 9 mi NE 12.7 mph - -   Mostly Cloudy
5:00 PM 82.4 °F 89.5 °F 75.2 °F 79% 30.10 in 6.2 mi NE 12.7 mph - N/A   Mostly Cloudy
6:00 PM 82.4 °F 86.3 °F 69.8 °F 66% 30.10 in 6.2 mi NNE 15.0 mph - N/A   Mostly Cloudy
7:00 PM 77.0 °F - 71.6 °F 83% 30.10 in 6.2 mi NNE 10.4 mph - N/A   Mostly Cloudy
8:00 PM 78 °F - 73 °F 80% 30.11 in 9 mi NE 11.5 mph - -   Partly Cloudy
9:00 PM 77.0 °F - 71.6 °F 83% 30.11 in 6.2 mi ENE 10.4 mph - N/A   Mostly Cloudy
10:00 PM 78.8 °F - 69.8 °F 74% 30.13 in 6.2 mi ENE 10.4 mph - N/A   Mostly Cloudy
11:00 PM 79 °F - 74 °F 79% 30.15 in 9 mi East 11.5 mph - -   Partly Cloudy
11:00 PM 78.8 °F - 73.4 °F 83% 30.14 in 6.2 mi East 11.5 mph - N/A   Mostly Cloudy